This is the latest recevied weather packets stored in our database for station/object KD9IXX-13. If no packets are shown the sender has not sent any weather packets the latest 10 day(s).
| Time | Temp. | Humidity | Pressure | Rain* | Wind** | Luminosity | Snow |
|---|---|---|---|---|---|---|---|
| 1777748102 | 12.22° C | 41% | 1020.4 hPa | 0 mm | - | 773 W/m² | - |
| 1777747802 | 11.11° C | 43% | 1020.6 hPa | 0 mm | - | 745 W/m² | - |
| 1777747502 | 11.11° C | 45% | 1020.7 hPa | 0 mm | - | 212 W/m² | - |
| 1777747202 | 11.67° C | 44% | 1020.6 hPa | 0 mm | - | 249 W/m² | - |
| 1777746902 | 12.22° C | 42% | 1020.7 hPa | 0 mm | - | 297 W/m² | - |
| 1777746602 | 11.11° C | 41% | 1020.7 hPa | 0 mm | - | 883 W/m² | - |
| 1777746302 | 11.11° C | 45% | 1020.8 hPa | 0 mm | - | 281 W/m² | - |
| 1777746003 | 11.11° C | 46% | 1020.7 hPa | 0 mm | - | 267 W/m² | - |
| 1777745702 | 10.56° C | 44% | 1020.6 hPa | 0 mm | - | 262 W/m² | - |
| 1777745402 | 11.11° C | 46% | 1020.7 hPa | 0 mm | - | 252 W/m² | - |
| 1777745102 | 11.67° C | 40% | 1020.7 hPa | 0 mm | - | 286 W/m² | - |
| 1777744802 | 10.56° C | 46% | 1020.9 hPa | 0 mm | - | 698 W/m² | - |
| 1777744503 | 10.56° C | 44% | 1020.9 hPa | 0 mm | - | 277 W/m² | - |
| 1777744202 | 11.11° C | 46% | 1020.9 hPa | 0 mm | - | 278 W/m² | - |
| 1777743902 | 11.67° C | 42% | 1020.9 hPa | 0 mm | - | 306 W/m² | - |
| 1777743602 | 11.11° C | 47% | 1021 hPa | 0 mm | - | 833 W/m² | - |
| 1777743302 | 10° C | 46% | 1021.1 hPa | 0 mm | - | 890 W/m² | - |
| 1777743001 | 10° C | 46% | 1021.2 hPa | 0 mm | - | 229 W/m² | - |
| 1777742702 | 10° C | 44% | 1021.3 hPa | 0 mm | - | 238 W/m² | - |
| 1777742402 | 10.56° C | 48% | 1021.3 hPa | 0 mm | - | 224 W/m² | - |
| 1777742102 | 11.67° C | 43% | 1021.3 hPa | 0 mm | - | 225 W/m² | - |
| 1777741802 | 11.11° C | 44% | 1021.1 hPa | 0 mm | - | 784 W/m² | - |
| 1777741502 | 11.11° C | 46% | 1021.3 hPa | 0 mm | - | 776 W/m² | - |
| 1777741202 | 10.56° C | 46% | 1021.4 hPa | 0 mm | - | 807 W/m² | - |
| 1777740902 | 9.44° C | 48% | 1021.6 hPa | 0 mm | - | 210 W/m² | - |
* Rain latest hour (hover to see other rain measurements)
** Current wind speed in m/s (hover to see current wind gust speed)